This is the latest recevied weather packets stored in our database for station/object N5SOR-1. If no packets are shown the sender has not sent any weather packets the latest 10 day(s).
| Time | Temp. | Humidity | Pressure | Rain* | Wind** | Luminosity | Snow |
|---|---|---|---|---|---|---|---|
| 1777219795 | 26.67° C | 15% | 1008.5 hPa | 0 mm | - | 306 W/m² | - |
| 1777219135 | 26.67° C | 15% | 1008.3 hPa | 0 mm | - | 264 W/m² | - |
| 1777218474 | 26.11° C | 16% | 1008.4 hPa | 0 mm | - | 207 W/m² | - |
| 1777217814 | 26.11° C | 16% | 1008.4 hPa | 0 mm | - | 197 W/m² | - |
| 1777217153 | 26.11° C | 16% | 1008.3 hPa | 0 mm | - | 232 W/m² | - |
| 1777216492 | 25° C | 16% | 1008.3 hPa | 0 mm | - | 134 W/m² | - |
| 1777215832 | 25.56° C | 16% | 1008.2 hPa | 0 mm | - | 186 W/m² | - |
| 1777215172 | 25° C | 17% | 1008.3 hPa | 0 mm | - | 200 W/m² | - |
| 1777214510 | 24.44° C | 17% | 1008.3 hPa | 0 mm | - | 132 W/m² | - |
| 1777213850 | 24.44° C | 17% | 1008.3 hPa | 0 mm | - | 148 W/m² | - |
| 1777213189 | 25° C | 17% | 1008.3 hPa | 0 mm | - | 156 W/m² | - |
| 1777212529 | 24.44° C | 17% | 1008.2 hPa | 0 mm | - | 206 W/m² | - |
| 1777211868 | 23.89° C | 18% | 1008.3 hPa | 0 mm | - | 146 W/m² | - |
| 1777211208 | 23.33° C | 17% | 1008.3 hPa | 0 mm | - | 155 W/m² | - |
| 1777210547 | 23.33° C | 17% | 1008.2 hPa | 0 mm | - | 105 W/m² | - |
| 1777209886 | 22.78° C | 17% | 1007.9 hPa | 0 mm | - | 49 W/m² | - |
| 1777209226 | 22.22° C | 17% | 1007.9 hPa | 0 mm | - | 62 W/m² | - |
| 1777208565 | 21.67° C | 18% | 1007.9 hPa | 0 mm | - | 58 W/m² | - |
| 1777207904 | 21.67° C | 18% | 1007.8 hPa | 0 mm | - | 33 W/m² | - |
| 1777207244 | 21.67° C | 18% | 1007.8 hPa | 0 mm | - | 19 W/m² | - |
| 1777206583 | 22.22° C | 17% | 1007.3 hPa | 0 mm | - | 11 W/m² | - |
| 1777205262 | 21.11° C | 18% | 1006.7 hPa | 0 mm | - | 0 W/m² | - |
| 1777204601 | 20.56° C | 19% | 1006.6 hPa | 0 mm | - | 0 W/m² | - |
| 1777203941 | 20° C | 19% | 1006.8 hPa | 0 mm | - | 0 W/m² | - |
| 1777203280 | 20.56° C | 19% | 1006.6 hPa | 0 mm | - | 0 W/m² | - |
* Rain latest hour (hover to see other rain measurements)
** Current wind speed in m/s (hover to see current wind gust speed)